Location: Gilevgi
(36.8751°N, 30.0581°E)
Time: 23:29:21
(UTC+00:00)

CZ-2D R/B - Visible Passes

Search period start: 08 March 2026 00:00
Search period end: 18 March 2026 00:00
Orbit: 527 x 593 km, 98.0° (Epoch: 8 March)

Date Brightness Start Highest point End Pass type
(mag) Time Alt. Az. Time Alt. Az. Time Alt. Az.
8 Mar 6.1 17:33:16 10° SW 17:36:27 22° W 17:39:41 10° NW visible
9 Mar 6.0 17:31:52 10° SSW 17:35:07 22° W 17:38:26 10° NW visible
10 Mar 5.9 17:30:28 10° SSW 17:33:47 23° W 17:37:10 10° NW visible
11 Mar 5.9 17:29:03 10° SSW 17:32:27 24° W 17:35:53 10° NW visible
12 Mar 5.8 17:27:39 10° SSW 17:31:06 25° W 17:34:36 10° NW visible
13 Mar 5.7 17:26:14 10° SSW 17:29:45 26° W 17:33:18 10° NW visible
14 Mar 5.7 17:24:49 10° SSW 17:28:23 28° W 17:32:00 10° NW visible
15 Mar 5.6 17:23:24 10° SSW 17:27:01 29° W 17:30:41 10° NW visible
16 Mar 5.5 17:21:59 10° SSW 17:25:39 30° W 17:29:22 10° NW visible
17 Mar 5.4 17:20:34 10° SSW 17:24:16 31° W 17:28:01 10° NW visible
